Rifle, CO

8:18 AM MDT on March 28, 2017 (GMT -0600)
Garfield County Regional

Weather History for KRIL - July, 2013

Change the Weather History Date:

Tuesday, July 23, 2013

  Actual Average Record
Temperature  
Mean Temperature 77 °F 73 °F  
Max Temperature 99 °F 91 °F 103 °F (1931)
Min Temperature 54 °F 56 °F 42 °F (1939)
Degree Days  
Heating Degree Days 0 0  
Month to date heating degree days 0 0  
Since 1 June heating degree days 13 59  
Since 1 July heating degree days 0 0  
Cooling Degree Days 12 8  
Month to date cooling degree days 271 172  
Year to date cooling degree days 429 274  
Since 1 June cooling degree days 422 267  
Growing Degree Days 26 (Base 50)    
Moisture  
Dew Point 27 °F    
Average Humidity 25    
Maximum Humidity 43    
Minimum Humidity 6    
Precipitation  
Precipitation 0.00 in 0.05 in 1.05 in (2005)
Month to date precipitation 0.54 0.68  
Year to date precipitation 4.53 7.12  
Sea Level Pressure  
Sea Level Pressure 29.87 in    
Wind  
Wind Speed 5 mph (East)    
Max Wind Speed 16 mph    
Max Gust Speed 21 mph    
Visibility 10 miles    
Events      
T = Trace of Precipitation, MM = Missing Value Source: NWS Daily Summary

Daily Weather History Graph

Daily Weather History Graph

Search for Another Location

Airport or City:

Trip Planner

Search our weather history database for the weather conditions in past years. The results will help you decide how hot, cold, wet, or windy it might be!

Date:

Astronomy

Jul. 23, 2013 Rise Set
Actual Time 6:02 AM MDT 8:31 PM MDT
Civil Twilight 5:31 AM MDT 9:02 PM MDT
Nautical Twilight 4:53 AM MDT 9:40 PM MDT
Astronomical Twilight 4:11 AM MDT 10:22 PM MDT
Moon 9:02 PM MDT (7/23) 7:14 AM MDT (7/23)
Length of Visible Light 15h 30m
Length of Day
14h 28m
Full, 99% of the Moon is Illuminated
Jul 23
Full
Jul 29
Last Quarter
Aug 6
New
Aug 14
First Quarter
Aug 20
Full

Hourly Weather History & Observations

Time (MDT) Temp. Dew Point Humidity Pressure Visibility Wind Dir Wind Speed Gust Speed Precip Events Conditions
12:53 AM 68.0 °F 25.0 °F 20% 29.84 in 10.0 mi South 3.5 mph - N/A   Clear
1:53 AM 63.0 °F 32.0 °F 31% 29.86 in 10.0 mi East 3.5 mph - N/A   Clear
2:53 AM 61.0 °F 28.9 °F 30% 29.87 in 10.0 mi Calm Calm - N/A   Clear
3:53 AM 60.1 °F 26.1 °F 27% 29.89 in 10.0 mi SE 4.6 mph - N/A   Clear
4:53 AM 55.9 °F 26.1 °F 32% 29.91 in 10.0 mi SE 4.6 mph - N/A   Clear
5:53 AM 55.0 °F 33.1 °F 43% 29.93 in 10.0 mi Calm Calm - N/A   Clear
6:53 AM 57.0 °F 28.9 °F 34% 29.94 in 10.0 mi East 4.6 mph - N/A   Clear
7:53 AM 64.9 °F 32.0 °F 29% 29.94 in 10.0 mi ENE 4.6 mph - N/A   Clear
8:53 AM 72.0 °F 30.0 °F 21% 29.95 in 10.0 mi ENE 5.8 mph - N/A   Clear
9:53 AM 75.9 °F 33.1 °F 21% 29.94 in 10.0 mi Calm Calm - N/A   Clear
10:53 AM 82.0 °F 30.9 °F 16% 29.92 in 10.0 mi Variable 3.5 mph - N/A   Clear
11:53 AM 89.1 °F 28.0 °F 11% 29.89 in 10.0 mi Variable 3.5 mph - N/A   Clear
12:53 PM 93.0 °F 24.1 °F 8% 29.86 in 10.0 mi Calm Calm - N/A   Clear
1:53 PM 93.9 °F 19.9 °F 7% 29.84 in 10.0 mi WSW 4.6 mph - N/A   Clear
2:53 PM 97.0 °F 21.9 °F 7% 29.82 in 10.0 mi ENE 4.6 mph - N/A   Clear
3:53 PM 96.1 °F 19.9 °F 6% 29.81 in 10.0 mi WNW 6.9 mph - N/A   Clear
4:53 PM 96.1 °F 23.0 °F 7% 29.81 in 10.0 mi North 9.2 mph - N/A   Clear
5:53 PM 93.0 °F 27.0 °F 9% 29.83 in 10.0 mi NNE 15.0 mph 20.7 mph N/A   Clear
6:53 PM 91.9 °F 25.0 °F 9% 29.81 in 10.0 mi NNE 6.9 mph - N/A   Clear
7:53 PM 91.0 °F 23.0 °F 8% 29.81 in 10.0 mi Calm Calm - N/A   Clear
8:53 PM 84.9 °F 25.0 °F 11% 29.81 in 10.0 mi Calm Calm - N/A   Clear
9:53 PM 79.0 °F 27.0 °F 15% 29.85 in 10.0 mi SSE 12.7 mph - N/A   Clear
10:53 PM 75.0 °F 27.0 °F 17% 29.85 in 10.0 mi East 4.6 mph - N/A   Clear
11:53 PM 73.9 °F 32.0 °F 21% 29.86 in 10.0 mi West 4.6 mph - N/A   Clear